GW0483 Weather Reports


time (UTC)temp
F
wind
direction
speed
knots
gust
knots
rain 1hr
in
rain 24hr
in
rain mn
in
humidity
%
barometer
mb
20260510095245 69 139 2.6 2.6 0.00 0.00 0.00 88 1010.6
20260510094744 69 176 2.6 2.6 0.00 0.00 0.00 88 1010.4
20260510094240 69 226 3.5 5.2 0.00 0.00 0.00 88 1010.5
20260510093736 69 193 1.7 1.7 0.00 0.00 0.00 87 1010.4
20260510093234 69 158 1.7 1.7 0.00 0.00 0.00 87 1010.3
20260510092730 69 102 1.7 1.7 0.00 0.00 0.00 87 1010.5
20260510092226 70 122 0.9 1.7 0.00 0.00 0.00 86 1010.2
20260510091721 70 163 1.7 2.6 0.00 0.00 0.00 86 1010.3
20260510091218 70 136 1.7 1.7 0.00 0.00 0.00 86 1010.4
20260510090715 70 174 1.7 1.7 0.00 0.00 0.00 86 1010.1
20260510090212 70 196 3.5 4.3 0.00 0.00 0.00 86 1009.8
20260510085706 69 203 2.6 4.3 0.00 0.00 0.00 87 1010.3
20260510085202 69 105 1.7 2.6 0.00 0.00 0.00 88 1010.4
20260510084658 69 115 2.6 2.6 0.00 0.00 0.00 89 1010.1
20260510084155 69 91 1.7 1.7 0.00 0.00 0.00 89 1010.3
20260510083652 69 197 1.7 2.6 0.00 0.00 0.00 89 1010.3
20260510083149 70 276 0.9 1.7 0.00 0.00 0.00 89 1010.3
20260510082645 70 102 0.9 1.7 0.00 0.00 0.00 89 1010.2
20260510082140 70 182 1.7 1.7 0.00 0.00 0.00 88 1010.2
20260510081636 70 105 0.9 1.7 0.00 0.00 0.00 88 1010.3
20260510081132 70 117 1.7 1.7 0.00 0.00 0.00 88 1010.2
20260510080631 70 97 1.7 1.7 0.00 0.00 0.00 88 1010.2
20260510080128 71 107 0.9 0.9 0.00 0.00 0.00 88 1010.3
20260510075625 71 141 1.7 2.6 0.00 0.00 0.00 88 1010.1
20260510075122 71 106 0.9 1.7 0.00 0.00 0.00 88 1010.1
20260510074619 71 122 1.7 1.7 0.00 0.00 0.00 88 1010.3
20260510074115 71 115 1.7 1.7 0.00 0.00 0.00 87 1010.2
20260510073611 71 108 1.7 1.7 0.00 0.00 0.00 87 1010.1
20260510073109 71 161 2.6 2.6 0.00 0.00 0.00 87 1010.2
20260510072605 71 135 1.7 1.7 0.00 0.00 0.00 87 1010.1
20260510072101 72 130 0.9 1.7 0.00 0.00 0.00 88 1010.2
20260510071557 72 88 0.9 0.9 0.00 0.00 0.00 88 1010.2
20260510071055 72 106 1.7 1.7 0.00 0.00 0.00 88 1010.1
20260510070551 72 123 0.9 1.7 0.00 0.00 0.00 88 1010.3
20260510070049 72 218 1.7 2.6 0.00 0.00 0.00 88 1010.2
20260510065545 72 214 2.6 4.3 0.00 0.00 0.00 88 1010.2
20260510065041 72 165 0.9 1.7 0.00 0.00 0.00 89 1010.2
20260510064538 72 117 2.6 4.3 0.00 0.00 0.00 89 1010.2
20260510064034 72 94 1.7 1.7 0.00 0.00 0.00 89 1010.2
20260510063531 72 94 0.9 0.9 0.00 0.00 0.00 89 1010.4
20260510063029 72 185 2.6 2.6 0.00 0.00 0.00 90 1010.2
20260510062524 72 129 2.6 2.6 0.00 0.00 0.00 90 1010.1
20260510062019 72 127 0.9 1.7 0.00 0.00 0.00 90 1010.1
20260510061516 72 157 2.6 2.6 0.00 0.00 0.00 90 1010.0
20260510061013 72 96 0.9 0.9 0.00 0.00 0.00 90 1010.2
20260510060510 72 185 0.9 1.7 0.00 0.00 0.00 90 1010.2
20260510060006 72 141 1.7 1.7 0.00 0.00 0.00 90 1010.3
20260510055502 72 78 0.9 1.7 0.00 0.00 0.00 90 1010.2
20260510055000 72 82 0.0 0.9 0.00 0.00 0.00 89 1010.1
20260510054455 73 97 0.9 1.7 0.00 0.00 0.00 89 1010.3
20260510053950 73 133 1.7 1.7 0.00 0.00 0.00 88 1010.2
20260510053446 73 94 0.9 0.9 0.00 0.00 0.00 88 1010.1
20260510052942 73 102 0.9 0.9 0.00 0.00 0.00 88 1010.3
20260510052438 73 92 1.7 1.7 0.00 0.00 0.00 88 1010.3
20260510051935 73 82 0.0 0.9 0.00 0.00 0.00 87 1010.3
20260510051431 73 90 0.9 0.9 0.00 0.00 0.00 87 1010.3
20260510050927 73 90 0.9 0.9 0.00 0.00 0.00 86 1010.1
20260510050424 73 85 0.0 0.0 0.00 0.00 0.00 86 1010.2
20260510045921 74 89 0.0 0.9 0.00 0.01 0.01 86 1010.1
20260510045419 74 80 0.0 0.9 0.00 0.01 0.01 86 1010.0
20260510044915 74 95 0.9 1.7 0.00 0.01 0.01 86 1009.8
20260510044412 74 83 0.9 0.9 0.00 0.01 0.01 86 1009.8
20260510043909 74 130 0.9 0.9 0.00 0.01 0.01 86 1010.0
20260510043405 74 111 0.0 0.9 0.00 0.01 0.01 86 1009.7
20260510042903 74 74 0.0 0.0 0.00 0.01 0.01 86 1009.7
20260510042359 74 74 0.0 0.0 0.00 0.01 0.01 85 1010.0
20260510041855 75 73 0.0 0.0 0.00 0.01 0.01 84 1009.8
20260510041352 75 73 0.9 0.9 0.00 0.01 0.01 85 1009.6
20260510040849 75 73 0.0 0.0 0.00 0.01 0.01 84 1009.6
20260510040346 75 73 0.0 0.0 0.00 0.01 0.01 84 1009.8
20260510035842 75 73 0.0 0.0 0.00 0.01 0.01 84 1009.6
20260510035338 75 74 0.0 0.0 0.00 0.01 0.01 84 1009.5
20260510034833 75 76 0.0 0.0 0.00 0.01 0.01 84 1009.6
20260510034332 74 76 0.0 0.0 0.00 0.01 0.01 84 1009.7
20260510033828 75 76 0.0 0.0 0.00 0.01 0.01 83 1009.4
20260510033325 75 76 0.0 0.0 0.00 0.01 0.01 83 1009.3
20260510032821 75 76 0.0 0.0 0.00 0.01 0.01 82 1009.3
20260510032318 76 76 0.0 0.0 0.00 0.01 0.01 82 1009.5
20260510031814 76 78 0.0 0.0 0.00 0.01 0.01 81 1009.3
20260510031309 76 78 0.0 0.0 0.00 0.01 0.01 81 1009.3
20260510030803 76 78 0.0 0.9 0.00 0.01 0.01 81 1009.1
20260510030300 76 78 0.0 0.0 0.00 0.01 0.01 80 1009.2
20260510025757 76 78 0.0 0.0 0.00 0.01 0.01 80 1009.1
20260510025255 77 78 0.0 0.0 0.00 0.01 0.01 80 1009.0
20260510024751 77 78 0.0 0.0 0.00 0.01 0.01 79 1008.9
20260510024248 77 78 0.0 0.0 0.00 0.01 0.01 79 1008.8
20260510023744 77 78 0.0 0.0 0.00 0.01 0.01 79 1008.8
20260510023241 77 78 0.0 0.0 0.00 0.01 0.01 78 1008.8
20260510022737 77 78 0.9 0.9 0.00 0.01 0.01 78 1008.6
20260510022232 78 85 0.9 0.9 0.00 0.01 0.01 77 1008.8
20260510021726 78 93 0.9 0.9 0.00 0.01 0.01 77 1008.9
20260510021225 78 140 1.7 2.6 0.00 0.01 0.01 76 1008.7
20260510020725 78 123 1.7 1.7 0.00 0.01 0.01 76 1008.7
20260510020220 78 158 2.6 2.6 0.00 0.01 0.01 76 1008.6
20260510015716 78 131 1.7 1.7 0.00 0.01 0.01 76 1008.7
20260510015212 78 100 0.9 0.9 0.00 0.01 0.01 75 1008.5
20260510014707 78 96 0.9 1.7 0.00 0.01 0.01 74 1008.6
20260510014206 78 132 2.6 4.3 0.00 0.01 0.01 73 1008.6
20260510013700 78 137 2.6 2.6 0.00 0.01 0.01 72 1008.3
20260510013156 79 100 1.7 2.6 0.00 0.01 0.01 70 1008.3
20260510012656 79 101 0.9 0.9 0.00 0.01 0.01 69 1008.2
20260510012151 79 108 1.7 1.7 0.00 0.01 0.01 68 1008.2
20260510011646 80 124 2.6 4.3 0.00 0.01 0.01 66 1008.1
20260510011143 80 102 0.9 1.7 0.00 0.01 0.01 64 1007.9
20260510010638 80 77 1.7 2.6 0.00 0.01 0.01 62 1007.9
20260510010136 80 105 0.9 0.9 0.00 0.01 0.01 61 1007.8
20260510005631 81 159 1.7 2.6 0.00 0.01 0.01 62 1007.7
20260510005129 81 91 1.7 2.6 0.00 0.01 0.01 61 1007.7
20260510004627 82 138 1.7 2.6 0.00 0.01 0.01 60 1007.6
20260510004125 82 146 1.7 1.7 0.00 0.01 0.01 61 1007.6
20260510003622 0 0.0 0.0 0.00 0.00 0.00 1007.5
20260510003118 82 101 0.9 0.9 0.00 0.01 0.01 60 1007.5
20260510002617 82 101 0.9 0.9 0.00 0.01 0.01 60 1007.4
20260510002115 0 0.0 0.0 0.00 0.00 0.00 1007.5
20260510001612 84 151 2.6 2.6 0.00 0.01 0.01 60 1007.4
20260510001111 84 151 2.6 2.6 0.00 0.01 0.01 60 1007.2
20260510000611 84 149 1.7 2.6 0.00 0.01 0.01 60 1007.3
20260510000108 84 146 2.6 2.6 0.00 0.01 0.01 60 1007.3
20260509235604 84 106 0.9 0.9 0.00 0.01 0.01 62 1007.2
20260509235102 84 91 0.9 0.9 0.00 0.01 0.01 65 1007.2
20260509234558 84 123 0.9 1.7 0.00 0.01 0.01 64 1007.2
20260509234055 84 139 1.7 1.7 0.00 0.01 0.01 63 1006.9
20260509233553 84 108 0.9 1.7 0.00 0.01 0.01 63 1006.9
20260509233050 83 135 1.7 1.7 0.00 0.01 0.01 63 1007.2
20260509232546 83 154 2.6 5.2 0.00 0.01 0.01 65 1006.9
20260509232043 83 96 2.6 4.3 0.00 0.01 0.01 65 1007.2
20260509231539 83 139 2.6 2.6 0.00 0.01 0.01 64 1007.1
20260509231037 83 180 1.7 1.7 0.00 0.01 0.01 65 1007.2
20260509230533 82 173 1.7 1.7 0.00 0.01 0.01 67 1006.9
20260509230031 82 117 2.6 2.6 0.00 0.01 0.01 67 1006.9
20260509225526 82 161 2.6 4.3 0.00 0.01 0.01 65 1007.2
20260509225022 83 104 4.3 8.7 0.00 0.01 0.01 63 1007.1
20260509224518 83 103 1.7 2.6 0.00 0.01 0.01 65 1007.3
20260509224015 82 142 3.5 4.3 0.00 0.01 0.01 67 1006.9
20260509223512 81 49 2.6 2.6 0.00 0.01 0.01 69 1007.1
20260509223010 82 131 3.5 5.2 0.00 0.01 0.01 65 1007.2
20260509222505 83 122 3.5 5.2 0.00 0.01 0.01 62 1007.2
20260509222001 84 161 2.6 4.3 0.00 0.01 0.01 64 1007.3
20260509221457 87 16 0.9 1.7 0.00 0.01 0.01 61 1007.2
20260509220953 92 148 1.7 1.7 0.00 0.01 0.01 54 1007.1
20260509220449 95 59 0.9 0.9 0.00 0.01 0.01 51 1007.2
20260509215945 96 43 0.9 1.7 0.00 0.01 0.01 49 1006.9
20260509215441 94 109 1.7 1.7 0.00 0.01 0.01 51 1006.9
20260509214939 93 60 0.9 1.7 0.00 0.01 0.01 52 1007.1
20260509214436 95 146 2.6 2.6 0.00 0.01 0.01 49 1007.2
20260509213932 95 249 0.9 1.7 0.00 0.01 0.01 46 1007.1
20260509213428 94 164 1.7 1.7 0.00 0.01 0.01 49 1007.1
20260509212926 95 104 0.9 1.7 0.00 0.01 0.01 50 1006.9
20260509212423 93 66 0.0 0.9 0.00 0.01 0.01 50 1007.3
20260509211919 92 185 0.9 1.7 0.00 0.01 0.01 51 1007.3
20260509211415 91 212 2.6 2.6 0.00 0.01 0.01 54 1007.3
20260509210911 92 2 2.6 2.6 0.00 0.01 0.01 52 1007.4
20260509210409 93 247 1.7 1.7 0.00 0.01 0.01 51 1007.3
20260509205904 92 287 0.9 1.7 0.00 0.01 0.01 53 1007.3
20260509205403 91 213 0.0 0.9 0.00 0.01 0.01 54 1007.5
20260509204900 89 71 0.9 0.9 0.00 0.01 0.01 56 1007.5
20260509204356 90 312 1.7 2.6 0.00 0.01 0.01 54 1007.6
20260509203853 90 94 0.9 1.7 0.00 0.01 0.01 54 1008.0
20260509203349 90 194 1.7 2.6 0.00 0.01 0.01 55 1007.8
20260509202846 91 316 0.9 0.9 0.00 0.01 0.01 54 1007.7
20260509202342 90 95 0.9 1.7 0.00 0.01 0.01 54 1007.8
20260509201837 88 165 0.9 0.9 0.00 0.01 0.01 59 1008.1
20260509201333 89 173 3.5 5.2 0.00 0.01 0.01 57 1008.2
20260509200830 91 311 0.0 0.9 0.00 0.01 0.01 54 1008.0
20260509200325 92 71 0.9 0.9 0.00 0.01 0.01 55 1008.2
20260509195822 90 51 0.0 0.0 0.00 0.01 0.01 54 1008.3
20260509195322 91 337 0.9 0.9 0.00 0.01 0.01 55 1008.2
20260509194822 90 150 1.7 1.7 0.00 0.01 0.01 55 1008.3
20260509194319 89 125 0.9 1.7 0.00 0.01 0.01 58 1008.5
20260509193815 89 173 3.5 5.2 0.00 0.01 0.01 57 1008.4
20260509193315 90 78 1.7 1.7 0.00 0.01 0.01 58 1008.5
20260509192812 89 1 0.9 0.9 0.00 0.01 0.01 57 1008.6
20260509192308 90 208 1.7 1.7 0.00 0.01 0.01 55 1008.7
20260509191803 90 197 3.5 4.3 0.00 0.01 0.01 58 1009.1
20260509191259 91 314 1.7 1.7 0.00 0.01 0.01 56 1009.1
20260509190755 90 98 0.9 1.7 0.00 0.01 0.01 56 1009.3
20260509190253 89 213 0.9 0.9 0.00 0.01 0.01 58 1009.3
20260509185750 87 51 0.9 0.9 0.00 0.01 0.01 61 1009.2
20260509185246 90 350 0.9 0.9 0.00 0.01 0.01 59 1009.4
20260509184743 86 159 0.9 1.7 0.00 0.01 0.01 65 1009.1
20260509184241 85 317 2.6 2.6 0.00 0.01 0.01 65 1009.3
20260509183737 86 260 2.6 4.3 0.00 0.01 0.01 66 1009.2
20260509183232 88 152 2.6 2.6 0.00 0.01 0.01 63 1009.3
20260509182727 88 198 3.5 5.2 0.00 0.01 0.01 62 1009.3
20260509182226 88 233 1.7 2.6 0.00 0.01 0.01 61 1009.4
20260509181723 88 244 2.6 2.6 0.00 0.01 0.01 62 1009.3
20260509181220 88 352 0.9 1.7 0.00 0.01 0.01 62 1009.6
20260509180717 88 306 0.9 0.9 0.00 0.01 0.01 64 1009.5
20260509180213 87 115 2.6 2.6 0.00 0.01 0.01 64 1009.6
20260509175710 86 283 1.7 1.7 0.00 0.01 0.01 66 1009.8
20260509175206 85 234 3.5 5.2 0.00 0.01 0.01 68 1009.8
20260509174702 85 245 2.6 4.3 0.00 0.01 0.01 68 1009.8
20260509174157 86 296 2.6 4.3 0.00 0.01 0.01 68 1010.3
20260509173653 85 265 1.7 2.6 0.00 0.01 0.01 70 1010.1
20260509173149 85 229 0.9 1.7 0.00 0.01 0.01 70 1010.2
20260509172646 85 15 1.7 2.6 0.00 0.01 0.01 71 1010.2
20260509172142 85 15 1.7 2.6 0.00 0.01 0.01 71 1010.0
20260509171638 85 274 3.5 5.2 0.00 0.01 0.01 70 1010.3
20260509171134 85 274 3.5 5.2 0.00 0.01 0.01 70 1010.5
20260509170631 83 275 2.6 4.3 0.00 0.01 0.01 74 1010.0
20260509170127 83 275 2.6 4.3 0.00 0.01 0.01 74 1010.0
20260509165625 84 147 2.6 2.6 0.00 0.01 0.01 72 1010.3
20260509165121 84 239 2.6 2.6 0.00 0.01 0.01 74 1010.3
20260509164617 83 215 0.9 1.7 0.00 0.01 0.01 74 1010.1
20260509164113 82 247 0.9 0.9 0.00 0.01 0.01 75 1010.3
20260509163611 81 268 2.6 2.6 0.00 0.01 0.01 79 1010.2
20260509163106 81 268 2.6 2.6 0.00 0.01 0.01 79 1010.5
20260509162604 81 265 2.6 2.6 0.00 0.01 0.01 82 1010.5
20260509162059 78 111 0.9 1.7 0.00 0.01 0.01 92 1010.4
20260509161551 78 111 0.9 1.7 0.00 0.01 0.01 92 1010.4
20260509161051 75 107 0.9 0.9 0.00 0.01 0.01 96 1010.3
20260509160547 75 118 0.9 1.7 0.00 0.01 0.01 97 1010.6
20260509160042 75 291 1.7 1.7 0.00 0.01 0.01 97 1010.4
20260509155539 75 14 1.7 1.7 0.00 0.01 0.01 98 1010.5
20260509155035 75 119 1.7 2.6 0.00 0.01 0.01 98 1010.3
20260509154531 74 108 0.9 0.9 0.00 0.01 0.01 99 1010.5
20260509154029 74 136 2.6 4.3 0.00 0.01 0.01 99 1010.5
20260509153526 73 153 1.7 1.7 0.07 0.01 0.01 99 1010.6
20260509153023 73 165 3.5 4.3 0.07 0.01 0.01 99 1010.3
20260509152518 73 147 3.5 6.1 0.00 0.00 0.00 99 1010.1
20260509152015 72 178 3.5 4.3 0.00 0.00 0.00 99 1010.2
20260509151512 72 136 1.7 1.7 0.00 0.00 0.00 99 1010.7
20260509151010 72 307 0.9 1.7 0.00 0.00 0.00 99 1011.0
20260509150507 72 102 0.9 0.9 0.00 0.00 0.00 99 1010.7
20260509150006 72 130 1.7 1.7 0.00 0.00 0.00 99 1010.8
20260509145501 72 75 0.0 0.9 0.00 0.00 0.00 99 1011.1
20260509144956 71 78 0.0 0.9 0.00 0.00 0.00 99 1010.9
20260509144453 71 91 0.0 0.9 0.00 0.00 0.00 99 1010.8
20260509143950 71 94 0.9 0.9 0.00 0.00 0.00 99 1011.0
20260509143447 71 121 1.7 1.7 0.00 0.00 0.00 99 1011.0
20260509142944 71 71 0.0 0.0 0.00 0.00 0.00 99 1010.9
20260509142440 71 61 0.0 0.0 0.00 0.00 0.00 99 1011.0
20260509141936 71 61 0.0 0.0 0.00 0.00 0.00 99 1010.9
20260509141433 71 57 0.0 0.0 0.00 0.00 0.00 99 1010.6
20260509140930 71 51 0.0 0.0 0.00 0.00 0.00 99 1010.3
20260509140426 71 52 0.0 0.0 0.00 0.00 0.00 99 1010.2
20260509135924 71 58 0.0 0.0 0.00 0.00 0.00 99 1010.0
20260509135421 71 56 0.0 0.0 0.00 0.00 0.00 99 1009.7
20260509134919 71 56 0.0 0.0 0.00 0.00 0.00 99 1009.6
20260509134416 71 55 0.0 0.0 0.00 0.00 0.00 99 1009.8
20260509133913 71 59 0.0 0.0 0.00 0.00 0.00 99 1010.0
20260509133409 71 74 0.0 0.0 0.00 0.00 0.00 99 1010.3
20260509132908 71 94 0.0 0.9 0.00 0.00 0.00 99 1009.8
20260509132406 71 96 0.9 0.9 0.00 0.00 0.00 99 1010.2
20260509131903 71 50 0.0 0.0 0.00 0.00 0.00 99 1010.2
20260509131400 71 46 0.0 0.0 0.00 0.00 0.00 99 1010.2
20260509130856 71 47 0.0 0.0 0.00 0.00 0.00 99 1010.1
20260509130351 71 45 0.0 0.0 0.00 0.00 0.00 99 1010.3
20260509125849 71 47 0.0 0.0 0.00 0.00 0.00 99 1009.8
20260509125345 71 126 0.9 1.7 0.00 0.00 0.00 99 1009.8
20260509124841 71 87 0.0 0.0 0.00 0.00 0.00 99 1009.8
20260509124338 71 112 0.9 0.9 0.00 0.00 0.00 99 1009.6
20260509123836 71 73 0.0 0.0 0.00 0.00 0.00 99 1009.6
20260509123333 71 52 0.0 0.0 0.00 0.00 0.00 99 1010.0
20260509122828 71 65 0.0 0.0 0.00 0.00 0.00 99 1010.0
20260509122326 71 28 0.0 0.9 0.00 0.00 0.00 99 1009.8
20260509121823 71 60 0.0 0.9 0.00 0.00 0.00 99 1010.0
20260509121320 71 55 0.0 0.0 0.00 0.00 0.00 99 1010.0
20260509120818 71 53 0.0 0.0 0.00 0.00 0.00 99 1010.2
20260509120316 71 49 0.0 0.0 0.00 0.00 0.00 99 1010.1
20260509115814 71 49 0.0 0.0 0.00 0.00 0.00 99 1010.4
20260509115310 71 56 0.0 0.0 0.00 0.00 0.00 99 1010.4
20260509114809 71 58 0.0 0.0 0.00 0.00 0.00 99 1010.4
20260509114307 71 64 0.0 0.0 0.00 0.00 0.00 99 1010.4
20260509113806 71 65 0.0 0.0 0.00 0.00 0.00 99 1010.1
20260509113302 71 96 0.0 0.0 0.00 0.00 0.00 99 1010.1
20260509112759 71 106 0.9 1.7 0.00 0.00 0.00 99 1010.2
20260509112256 71 51 0.0 0.0 0.00 0.00 0.00 99 1010.3
20260509111753 71 72 0.9 0.9 0.00 0.00 0.00 99 1010.0
20260509111250 71 57 0.0 0.0 0.00 0.00 0.00 99 1010.1
20260509110747 71 51 0.0 0.0 0.00 0.00 0.00 99 1009.6
20260509110244 71 53 0.0 0.0 0.00 0.00 0.00 99 1009.7
20260509105742 71 44 0.0 0.0 0.00 0.00 0.00 99 1009.2
20260509105239 71 53 0.0 0.0 0.00 0.00 0.00 99 1009.6
20260509104736 71 43 0.0 0.0 0.00 0.00 0.00 99 1009.7
20260509104233 71 68 0.0 0.0 0.00 0.00 0.00 99 1009.5
20260509103731 71 61 0.0 0.0 0.00 0.00 0.00 99 1009.6
20260509103228 71 53 0.0 0.0 0.00 0.00 0.00 99 1009.7
20260509102726 71 45 0.0 0.0 0.00 0.00 0.00 99 1009.7
20260509102223 71 44 0.0 0.0 0.00 0.00 0.00 99 1010.0
20260509101719 71 47 0.0 0.0 0.00 0.00 0.00 99 1010.0
20260509101216 71 56 0.0 0.0 0.00 0.00 0.00 99 1009.6
20260509100713 71 58 0.0 0.0 0.00 0.00 0.00 99 1009.6
20260509100210 71 58 0.0 0.0 0.00 0.00 0.00 99 1009.2
20260509095707 71 53 0.0 0.0 0.00 0.00 0.00 99 1009.3